Tracking 19817 objects as of 18-Aug-2019
HD Live streaming from Space Station
objects crossing your sky now

THORAD DELTA 1 DEB

Track THORAD DELTA 1 DEB now!
10-day predictions


NORAD ID: 42608
Int'l Code: 1974-089FZ
Perigee: 1,505.8 km
Apogee: 1,624.6 km
Inclination: 102.2 °
Period: 117.3 minutes
Semi major axis: 7936 km
RCS: Unknown
Launch date: November 15, 1974
Source: United States (US)
Launch site: AIR FORCE WESTERN TEST RANGE (AFWTR)

Note: This is SATELLITE DEBRIS
aabbcc
Your satellite tracking list
Your tracking list is empty




NASA's NSSDC Master Catalog

Two Line Element Set (TLE):
1 42608U 74089FZ  19226.34948696 -.00000036  00000-0  74090-4 0  9991
2 42608 102.1820 195.2646 0074826   1.6554 358.4738 12.27959393256682
Source of the keplerian elements: AFSPC